Richmond, VA

11:28 PM EDT on September 22, 2017 (GMT -0400)
Richmond International

Weather History for KRIC - October, 2012

Change the Weather History Date:

Thursday, October 18, 2012

  Actual Average Record
Temperature  
Mean Temperature 60 °F 59 °F  
Max Temperature 75 °F 70 °F 88 °F (1938)
Min Temperature 45 °F 47 °F 28 °F (1977)
Degree Days  
Heating Degree Days 5 7  
Month to date heating degree days 102 90  
Since 1 July heating degree days 113 119  
Cooling Degree Days 0 1  
Month to date cooling degree days 46 31  
Year to date cooling degree days 1735 1535  
Growing Degree Days 10 (Base 50)    
Moisture  
Dew Point 53 °F    
Average Humidity 77    
Maximum Humidity 100    
Minimum Humidity 53    
Precipitation  
Precipitation T in 0.09 in 2.91 in (1996)
Month to date precipitation 1.20 1.72  
Year to date precipitation 30.62 35.84  
Snow  
Snow 0.00 in 0.00 in 0.00 in (2002)
Month to date snowfall 0.0 0.0  
Since 1 July snowfall 0.0 0.0  
Snow Depth 0.00 in    
Sea Level Pressure  
Sea Level Pressure 29.91 in    
Wind  
Wind Speed 7 mph (SE)    
Max Wind Speed 16 mph    
Max Gust Speed 21 mph    
Visibility 8 miles    
Events      
T = Trace of Precipitation, MM = Missing Value Source: NWS Daily Summary

Daily Weather History Graph

Daily Weather History Graph

Search for Another Location

Airport or City:

Trip Planner

Search our weather history database for the weather conditions in past years. The results will help you decide how hot, cold, wet, or windy it might be!

Date:

Astronomy

Oct. 18, 2012 Rise Set
Actual Time 7:20 AM EDT 6:27 PM EDT
Civil Twilight 6:54 AM EDT 6:53 PM EDT
Nautical Twilight 6:23 AM EDT 7:24 PM EDT
Astronomical Twilight 5:53 AM EDT 7:54 PM EDT
Moon 10:56 AM EDT (10/18) 9:03 PM EDT (10/18)
Length of Visible Light 11h 59m
Length of Day
11h 06m
Waxing Crescent, 14% of the Moon is Illuminated
Oct 18
Waxing Crescent
Oct 21
First Quarter
Oct 29
Full
Nov 6
Last Quarter
Nov 13
New

Hourly Weather History & Observations

Time (EDT) Temp. Dew Point Humidity Pressure Visibility Wind Dir Wind Speed Gust Speed Precip Events Conditions
12:54 AM 52.0 °F 48.9 °F 89% 29.96 in 10.0 mi SE 4.6 mph - N/A   Clear
1:54 AM 52.0 °F 48.0 °F 86% 29.96 in 10.0 mi SSE 5.8 mph - N/A   Clear
2:54 AM 52.0 °F 48.9 °F 89% 29.96 in 10.0 mi South 9.2 mph - N/A   Clear
3:54 AM 50.0 °F 48.0 °F 93% 29.95 in 10.0 mi South 4.6 mph - N/A   Clear
4:54 AM 48.9 °F 48.0 °F 97% 29.96 in 6.0 mi Calm Calm - N/A   Clear
5:34 AM 48.2 °F 46.4 °F 93% 29.96 in 5.0 mi Calm Calm - N/A   Partly Cloudy
5:54 AM 48.0 °F 46.0 °F 93% 29.97 in 6.0 mi Calm Calm - N/A   Partly Cloudy
6:54 AM 46.0 °F 45.0 °F 96% 29.97 in 3.0 mi Calm Calm - N/A   Scattered Clouds
7:12 AM 44.6 °F 44.6 °F 100% 29.95 in 1.0 mi Calm Calm - N/A   Mostly Cloudy
7:34 AM 46.4 °F 44.6 °F 93% 29.95 in 1.0 mi Calm Calm - N/A   Scattered Clouds
7:54 AM 46.9 °F 46.0 °F 97% 29.97 in 5.0 mi Calm Calm - N/A   Scattered Clouds
8:54 AM 54.0 °F 52.0 °F 93% 29.98 in 8.0 mi Calm Calm - N/A   Scattered Clouds
9:54 AM 60.1 °F 53.1 °F 78% 29.97 in 10.0 mi SE 9.2 mph - N/A   Mostly Cloudy
10:54 AM 64.9 °F 53.1 °F 65% 29.97 in 10.0 mi SSE 8.1 mph - N/A   Mostly Cloudy
11:54 AM 69.1 °F 54.0 °F 58% 29.96 in 10.0 mi SSE 12.7 mph 16.1 mph N/A   Mostly Cloudy
12:54 PM 73.0 °F 55.0 °F 53% 29.92 in 10.0 mi South 9.2 mph 17.3 mph N/A   Mostly Cloudy
1:54 PM 73.0 °F 55.9 °F 55% 29.89 in 10.0 mi SE 11.5 mph 18.4 mph N/A   Mostly Cloudy
2:54 PM 73.9 °F 55.9 °F 53% 29.86 in 10.0 mi SSE 9.2 mph - N/A   Mostly Cloudy
3:54 PM 73.0 °F 57.9 °F 59% 29.86 in 10.0 mi SSE 10.4 mph - N/A   Mostly Cloudy
4:54 PM 72.0 °F 60.1 °F 66% 29.84 in 10.0 mi SE 11.5 mph - N/A   Mostly Cloudy
5:54 PM 70.0 °F 60.1 °F 71% 29.83 in 10.0 mi ESE 6.9 mph - 0.00 in   Mostly Cloudy
6:54 PM 68.0 °F 61.0 °F 78% 29.84 in 10.0 mi ESE 8.1 mph - N/A   Mostly Cloudy
7:54 PM 66.9 °F 62.1 °F 84% 29.84 in 10.0 mi SE 10.4 mph - N/A   Overcast
8:54 PM 66.0 °F 61.0 °F 84% 29.84 in 10.0 mi SE 5.8 mph - N/A   Scattered Clouds
9:54 PM 64.0 °F 61.0 °F 90% 29.82 in 10.0 mi SE 8.1 mph - N/A   Scattered Clouds
10:54 PM 66.0 °F 61.0 °F 84% 29.81 in 10.0 mi SSE 9.2 mph - N/A   Mostly Cloudy
11:54 PM 64.0 °F 60.1 °F 87% 29.81 in 10.0 mi SE 9.2 mph - N/A   Scattered Clouds